Flag for Canada Weather past 2 weeks in Corner Brook, Newfoundland and Labrador, Canada

Now
30 °F

Overcast.


Feels Like: 30 °F
Forecast: 26 / 38 °F
Wind: 2 mph from South

Location: Deer Lake


UV Index: 0 (Low)

Visibility: 15 mi


Pressure: 30.30 "Hg

Humidity: 75%

Dew point: 23 °F

Location of Corner BrookLocation

Historic Weather in Corner Brook

°F

Corner Brook temperature yesterday

Maximum temperature yesterday: 43 °F (at 4:30 PM)
Minimum temperature yesterday: 16 °F (at 4:30 AM)
Average temperature yesterday: 30 °F

Past Weeks' High & Low Weather Summary

 TemperatureHumidityPressure
High55 °F (Apr 16, 12:30 PM)100% (Apr 15, 4:30 AM)30.78 "Hg (Apr 15, 4:30 AM)
Low12 °F (Apr 14, 4:30 AM)34% (Apr 18, 4:30 PM)29.18 "Hg (Apr 9, 2:30 PM)
Average34 °F73%30.01 "Hg
* Reported Apr 4 2:30 AM — Apr 19 2:30 AM, Corner Brook, Weather by CustomWeather, © 2014

Note: Actual official high and low records may vary slightly from our data, if they occured in-between our weather recording intervals... More about our weather records

Advertising

Historic Weather Conditions — Data for Previous 24 hours

 ConditionsComfort  
Time TempWeatherWind HumidityBarometerVisibility
2:30 AM
Apr 19
28 °FOvercast.No wind80%30.32 "Hg15 mi
1:30 AM30 °FOvercast.3 mph75%30.34 "Hg15 mi
12:30 AM30 °FOvercast.No wind80%30.35 "Hg15 mi
11:30 PM
Apr 18
30 °FOvercast.2 mph75%30.39 "Hg15 mi
10:30 PM32 °FOvercast.2 mph64%30.41 "Hg15 mi
9:30 PM32 °FOvercast.6 mph60%30.44 "Hg15 mi
8:30 PM34 °FOvercast.7 mph56%30.47 "Hg15 mi
7:30 PM36 °FOvercast.9 mph52%30.49 "Hg15 mi
6:30 PM37 °FOvercast.7 mph52%30.50 "Hg15 mi
5:30 PM41 °FOvercast.8 mph45%30.51 "Hg15 mi
4:30 PM43 °FOvercast.8 mph34%30.52 "Hg15 mi
3:30 PM41 °FOvercast.10 mph36%30.55 "Hg15 mi
2:30 PM41 °FPartly sunny.10 mph39%30.59 "Hg15 mi
1:30 PM37 °FPartly sunny.10 mph45%30.63 "Hg15 mi
12:30 PM36 °FScattered clouds.12 mph48%30.66 "Hg15 mi
11:30 AM34 °FPassing clouds.10 mph56%30.69 "Hg15 mi
10:30 AM32 °FPassing clouds.10 mph64%30.71 "Hg15 mi
9:30 AM28 °FPassing clouds.10 mph74%30.73 "Hg15 mi
8:30 AM23 °FPassing clouds.No wind80%30.74 "Hg15 mi
7:30 AM18 °FScattered clouds.No wind86%30.75 "Hg15 mi
6:30 AM16 °FPassing clouds.No wind93%30.76 "Hg15 mi
5:30 AM16 °FPassing clouds.No wind93%30.76 "Hg15 mi
4:30 AM16 °FPassing clouds.No wind93%30.76 "Hg15 mi
3:30 AM19 °FClear.5 mph86%30.76 "Hg15 mi
Weather by CustomWeather, © 2014

See weather overview